Simultaneous Nadir Overpasses (SNOs) Predictions

Prediction of SNOs between METOP-A and TERRA Satellite Orbit:

Table of predicted SNOs for the next 14.0 days since TLE Epoch: 5/21/2021
Index Date (METOP-A) Time (METOP-A) Lat,Lon (METOP-A) SZA (METOP-A ) Date (TERRA) Time (TERRA) Lat,Lon (TERRA) SZA (TERRA ) Distance(km) Time Diff (sec)
1 05/24/2021 12:11:47 -81.33,-136.90 116.68 05/24/2021 12:12:22 -81.31,-136.76 116.66 3.02 35
2 05/24/2021 13:02:26 81.31, 31.08 63.38 05/24/2021 13:01:48 81.32, 30.97 63.35 2.31 38
3 05/27/2021 07:46:08 -81.31, -70.14 117.14 05/27/2021 07:46:33 -81.33, -69.99 117.10 3.28 25
4 05/27/2021 08:36:48 81.31, 97.43 62.88 05/27/2021 08:36:00 81.31, 97.34 62.85 1.89 48
5 05/30/2021 03:20:29 -81.31, -3.79 117.60 05/30/2021 03:20:44 -81.33, -3.63 117.56 3.02 15
6 05/30/2021 04:11:09 81.31, 163.77 62.42 05/30/2021 04:10:11 81.31, 163.66 62.38 1.78 58
7 06/01/2021 22:54:51 -81.31, 62.55 118.01 06/01/2021 22:54:56 -81.32, 62.69 117.98 2.38 5
8 06/01/2021 23:45:31 81.31,-129.92 62.01 06/01/2021 23:44:23 81.30,-130.05 61.96 2.42 68
9 06/04/2021 17:38:32 81.32, -38.50 61.64 06/04/2021 17:39:40 81.33, -38.32 61.70 3.37 68



Historial Predications of SNOs between METOP-A and TERRA
